星链-5181 (STARLINK-5181 )

导读 | 豆包AI

STARLINK-5181是美国SpaceX公司星链(Starlink)项目的低轨通信卫星,于2022年10月20日发射,属于星链V1.5批次卫星。该卫星质量约295公斤,采用紧凑平板设计,配备激光星间链路,可实现卫星间直接通信,能提升星链网络带宽与可靠性,降低对地面基站依赖,服务全球高速宽带互联网接入,尤其覆盖偏远及海洋区域,目前在轨正常运行。

Basic Information
目录编号:
54070
目录名称:
STARLINK-5181
国际标识:
2022-136V
轨道中心:
EARTH
卫星名称:
星链-5181
卫星全名:
星链-5181 (STARLINK-5181 )
卫星状态:
在轨 (已飞行1242 天)
发射日期:
2022-10-20 UTC
国别 :
美国 (US)
星等 :
--
Orbit Information
数据来源 国际轨道数据 AOE轨道数据
星历时间 2026-03-15T06:59:49+0800
12小时前
查看轨道信息
2026-03-14T15:00:00+0800
1天前
查看轨道信息
半长轴 6917.96km 6917.828km
偏心率 0.0001426 0.0001276
轨道倾角 53.219° 53.216°
近地点辐角 92.521° 70.562°
升交点赤经 320.166° 323.163°
平近点角 267.595° 267.155°
近地点 538.836km 538.808km
远地点 540.81km 540.574km
周期 95.439分钟 95.436分钟
每日圈数 15.088142 15.088574
Detailed Information
固有亮度:
5
最大亮度:
2.5
卫星平台:
Starlink v1.5
覆盖范围:
全球
运营商:
太空探索技术公司
运营商所在国:
美国
制造商(研发单位):
太空探索技术公司
制造商所在国:
美国
使用方式:
暂无
Satellite Introduction
星链(Starlink)计划是由太空探索技术公司(SpaceX)提出的一个巨型低轨卫星互联网星座项目,计划在2019年至2024年间在太空搭建由约1.2万颗卫星组成的“星链”网络,其中1584颗将部署在地球上空550千米处的近地轨道,并从2020年开始工作。该卫星仍在工作。
2D Orbit Map
3D Orbit Map
Orbit Altitude Analysis Chart
Orbit Inclination Analysis Chart
Orbit Comprehensive Analysis Chart
View Comprehensive Chart